Regional Weather Roundup
Issued by NWS

Home | Current Version | Previous Version | Text Only | Print | Product List | Glossary On
Versions: 1 2 3 4 5 6 7 8 9 10 11 12 13 14 15 16 17 18 19 20 21 22 23 24 25 26 27 28 29 30 31 32 33 34 35 36 37 38 39 40 41 42 43 44 45 46 47 48
000
ASUS42 KFFC 022103
RWRGA
WEATHER ROUNDUP FOR GEORGIA
NATIONAL WEATHER SERVICE PEACHTREE CITY GA
400 PM EST MON MAR 02 2015

NOTE: "FAIR" INDICATES FEW OR NO CLOUDS BELOW 12,000 FEET WITH NO
SIGNIFICANT WEATHER AND/OR OBSTRUCTIONS TO VISIBILITY.

* = USE WITH CAUTION. THE STATIONS MARKED WITH AN ASTERISK MAY NOT
REPORT WEATHER SUCH AS PRECIPITATION, FOG, OR THUNDER AND ARE NOT
QUALITY CONTROLLED BY NWS.

THE REMARK "TC" DENOTES TEMPERATURE READING IN DEGREES CELSIUS.

GAZ001>058-022200-
NORTH GEORGIA

CITY           SKY/WX    TMP DP  RH WIND       PRES   REMARKS
ATLANTA        LGT RAIN  61  50  67 W5        30.24F
ATHENS         MOSUNNY   72  51  47 VRB7      30.20S
CHAMBLEE       PTSUNNY   59  46  62 W8        30.24F
PEACHTREE CITY CLOUDY    66  53  63 N6        30.25F
ROME           MOSUNNY   57  45  64 N10       30.28R
WEST ATLANTA   CLOUDY    59  47  64 W7        30.24F
GAINESVILLE    MOSUNNY   64  49  57 SW14      30.21F
CARTERSVILLE   CLOUDY    57  43  59 N10       30.27F


CITY           SKY/WX    TMP DP  RH WIND       PRES   REMARKS
DALTON*        MOSUNNY   52  43  71 N10       30.28S
LAWRENCEVILLE* MOSUNNY   64  46  52 W8        30.22F
MARIETTA       PTSUNNY   59  47  64 NW9       30.24F
KENNESAW*      PTSUNNY   57  45  62 NW7       30.27F
$$

GAZ059>098-102>109-022200-
CENTRAL GEORGIA

CITY           SKY/WX    TMP DP  RH WIND       PRES   REMARKS
AUGUSTA-BUSH   MOSUNNY   76  57  51 W10       30.17S
AUGUSTA-DANIEL MOSUNNY   76  56  49 W8        30.18S
COLUMBUS       CLOUDY    68  56  65 VRB5      30.23F
MACON          CLOUDY    73  58  59 W10       30.21F
ROBINS AFB     PTSUNNY   75  59  57 W12       30.21F


CITY           SKY/WX    TMP DP  RH WIND       PRES   REMARKS
LAGRANGE*      CLOUDY    68  58  71 CALM      30.25F
SYLVANIA*      SUNNY     73  61  66 W9        30.21F
MILLEDGEVILLE* MOSUNNY   75  61  60 W7        30.20S
$$

GAZ099>101-110>166-022200-
SOUTH GEORGIA

CITY           SKY/WX    TMP DP  RH WIND       PRES   REMARKS
SAVANNAH       PTSUNNY   76  58  53 W10       30.20F
VALDOSTA       PTSUNNY   74  62  66 VRB3      30.23F
ALMA           CLOUDY    69  59  70 W6        30.24F
ST SIMONS      MOSUNNY   72  61  68 SW7       30.22F
FT STEWART     SUNNY     75  60  58 W8        30.19F
ALBANY         CLOUDY    65  58  78 W3        30.27F
HUNTER AFB     SUNNY     77  60  56 W13       30.18F
MOODY AFB      PTSUNNY   70  62  75 N3        30.23F
BRUNSWICK      CLOUDY    73  61  64 W6        30.23S


CITY           SKY/WX    TMP DP  RH WIND       PRES   REMARKS
BAINBRIDGE*    CLOUDY    68  61  77 CALM      30.25F
MOULTRIE*      PTSUNNY   70  63  78 CALM      30.25F
VIDALIA*       MOSUNNY   73  61  64 SW7       30.22F
WAYCROSS*      PTSUNNY   74  66  75 NW7       30.24S
DOUGLAS*       PTSUNNY   70  61  73 CALM      30.25F
$$


USA.gov is the U.S. government's official web portal to all federal, state and local government web resources and services.